Time,TemperatureF,DewpointF,PressureIn,WindDirection,WindDirectionDegrees,WindSpeedMPH,WindSpeedGustMPH,Humidity,HourlyPrecipIn,Conditions,Clouds,dailyrainin,SoftwareType,DateUTC
2013-02-01 00:01:00,47.0,28.0,-100.00,ESE,104,4.0,6.0,48,-99.99,,,-99.99,,2013-02-01 08:01:00,
2013-02-01 00:11:00,47.0,28.0,-100.00,East,94,4.0,6.0,48,-99.99,,,-99.99,,2013-02-01 08:11:00,
2013-02-01 00:21:00,47.0,27.0,-100.00,ESE,106,6.0,8.0,46,-99.99,,,-99.99,,2013-02-01 08:21:00,
2013-02-01 00:31:00,48.0,28.0,-100.00,ESE,103,5.0,8.0,45,-99.99,,,-99.99,,2013-02-01 08:31:00,
2013-02-01 00:42:00,48.0,27.0,-100.00,East,100,4.0,7.0,44,-99.99,,,-99.99,,2013-02-01 08:42:00,
2013-02-01 00:52:00,48.0,27.0,-100.00,ENE,77,3.0,4.0,44,-99.99,,,-99.99,,2013-02-01 08:52:00,
2013-02-01 01:01:00,48.0,28.0,-100.00,East,95,4.0,6.0,45,-99.99,,,-99.99,,2013-02-01 09:01:00,
2013-02-01 01:11:00,48.0,28.0,-100.00,East,96,3.0,5.0,45,-99.99,,,-99.99,,2013-02-01 09:11:00,
2013-02-01 01:21:00,47.0,27.0,-100.00,East,90,1.0,4.0,45,-99.99,,,-99.99,,2013-02-01 09:21:00,
2013-02-01 01:31:00,46.0,26.0,-100.00,East,95,1.0,2.0,46,-99.99,,,-99.99,,2013-02-01 09:31:00,
2013-02-01 01:41:00,46.0,27.0,-100.00,ENE,60,1.0,3.0,47,-99.99,,,-99.99,,2013-02-01 09:41:00,
2013-02-01 01:51:00,44.0,27.0,-100.00,NW,307,1.0,1.0,50,-99.99,,,-99.99,,2013-02-01 09:51:00,
2013-02-01 02:01:00,44.0,27.0,-100.00,NW,307,1.0,1.0,50,-99.99,,,-99.99,,2013-02-01 10:01:00,
2013-02-01 02:11:00,45.0,27.0,-100.00,West,275,1.0,1.0,48,-99.99,,,-99.99,,2013-02-01 10:11:00,
2013-02-01 02:21:00,45.0,27.0,-100.00,WNW,298,1.0,1.0,48,-99.99,,,-99.99,,2013-02-01 10:21:00,
2013-02-01 02:31:00,44.0,26.0,-100.00,SE,146,1.0,1.0,49,-99.99,,,-99.99,,2013-02-01 10:31:00,
2013-02-01 02:42:00,43.0,26.0,-100.00,West,259,1.0,1.0,51,-99.99,,,-99.99,,2013-02-01 10:42:00,
2013-02-01 02:52:00,43.0,26.0,-100.00,West,268,1.0,1.0,50,-99.99,,,-99.99,,2013-02-01 10:52:00,
2013-02-01 03:01:00,43.0,26.0,-100.00,West,268,1.0,1.0,50,-99.99,,,-99.99,,2013-02-01 11:01:00,
2013-02-01 03:11:00,44.0,26.0,-100.00,South,191,1.0,1.0,48,-99.99,,,-99.99,,2013-02-01 11:11:00,
2013-02-01 03:21:00,45.0,25.0,-100.00,WNW,284,1.0,1.0,46,-99.99,,,-99.99,,2013-02-01 11:21:00,
2013-02-01 03:31:00,44.0,25.0,-100.00,West,278,1.0,1.0,47,-99.99,,,-99.99,,2013-02-01 11:31:00,
2013-02-01 03:41:00,44.0,25.0,-100.00,West,278,1.0,1.0,47,-99.99,,,-99.99,,2013-02-01 11:41:00,
2013-02-01 03:50:00,43.0,24.0,-100.00,SE,131,1.0,2.0,46,-99.99,,,-99.99,,2013-02-01 11:50:00,
2013-02-01 03:53:00,45.0,25.0,-100.00,West,268,1.0,1.0,45,-99.99,,,-99.99,,2013-02-01 11:53:00,
2013-02-01 04:02:00,44.0,25.0,-100.00,West,265,1.0,2.0,46,-99.99,,,-99.99,,2013-02-01 12:02:00,
2013-02-01 04:12:00,43.0,24.0,-100.00,WSW,246,1.0,2.0,47,-99.99,,,-99.99,,2013-02-01 12:12:00,
2013-02-01 04:22:00,43.0,24.0,-100.00,SE,131,1.0,2.0,46,-99.99,,,-99.99,,2013-02-01 12:22:00,
2013-02-01 04:32:00,43.0,24.0,-100.00,SE,131,1.0,2.0,46,-99.99,,,-99.99,,2013-02-01 12:32:00,
2013-02-01 04:42:00,43.0,24.0,-100.00,SE,131,1.0,2.0,46,-99.99,,,-99.99,,2013-02-01 12:42:00,
2013-02-01 05:02:00,45.0,24.0,-100.00,WNW,292,1.0,2.0,43,-99.99,,,-99.99,,2013-02-01 13:02:00,
2013-02-01 05:11:00,44.0,23.0,-100.00,West,272,1.0,1.0,44,-99.99,,,-99.99,,2013-02-01 13:11:00,
2013-02-01 05:21:00,44.0,23.0,-100.00,West,275,1.0,1.0,43,-99.99,,,-99.99,,2013-02-01 13:21:00,
2013-02-01 05:32:00,44.0,23.0,-100.00,West,274,1.0,2.0,43,-99.99,,,-99.99,,2013-02-01 13:32:00,
2013-02-01 05:42:00,44.0,23.0,-100.00,WSW,256,1.0,1.0,43,-99.99,,,-99.99,,2013-02-01 13:42:00,
2013-02-01 05:52:00,44.0,23.0,-100.00,WSW,247,1.0,1.0,44,-99.99,,,-99.99,,2013-02-01 13:52:00,
2013-02-01 06:02:00,43.0,23.0,-100.00,SSW,211,1.0,1.0,44,-99.99,,,-99.99,,2013-02-01 14:02:00,
2013-02-01 06:11:00,43.0,23.0,-100.00,South,171,1.0,1.0,45,-99.99,,,-99.99,,2013-02-01 14:11:00,
2013-02-01 06:31:00,42.0,23.0,-100.00,West,274,1.0,1.0,47,-99.99,,,-99.99,,2013-02-01 14:31:00,
2013-02-01 06:42:00,42.0,23.0,-100.00,WNW,286,1.0,1.0,46,-99.99,,,-99.99,,2013-02-01 14:42:00,
2013-02-01 06:52:00,43.0,24.0,-100.00,WSW,252,1.0,1.0,46,-99.99,,,-99.99,,2013-02-01 14:52:00,
2013-02-01 07:02:00,44.0,24.0,-100.00,East,92,1.0,3.0,45,-99.99,,,-99.99,,2013-02-01 15:02:00,
2013-02-01 07:11:00,42.0,24.0,-100.00,East,91,2.0,4.0,48,-99.99,,,-99.99,,2013-02-01 15:11:00,
2013-02-01 07:21:00,44.0,23.0,-100.00,East,97,3.0,4.0,44,-99.99,,,-99.99,,2013-02-01 15:21:00,
2013-02-01 07:32:00,45.0,24.0,-100.00,East,97,3.0,5.0,43,-99.99,,,-99.99,,2013-02-01 15:32:00,
2013-02-01 07:42:00,48.0,22.0,-100.00,ESE,116,4.0,6.0,36,-99.99,,,-99.99,,2013-02-01 15:42:00,
2013-02-01 07:51:00,51.0,22.0,-100.00,ESE,105,3.0,6.0,32,-99.99,,,-99.99,,2013-02-01 15:51:00,
2013-02-01 08:02:00,51.0,23.0,-100.00,East,99,3.0,7.0,33,-99.99,,,-99.99,,2013-02-01 16:02:00,
2013-02-01 08:11:00,52.0,24.0,-100.00,East,87,3.0,7.0,33,-99.99,,,-99.99,,2013-02-01 16:11:00,
2013-02-01 08:21:00,53.0,25.0,-100.00,East,83,3.0,7.0,33,-99.99,,,-99.99,,2013-02-01 16:21:00,
2013-02-01 08:32:00,53.0,24.0,-100.00,ENE,78,4.0,6.0,32,-99.99,,,-99.99,,2013-02-01 16:32:00,
2013-02-01 08:42:00,54.0,25.0,-100.00,ENE,76,4.0,7.0,32,-99.99,,,-99.99,,2013-02-01 16:42:00,
2013-02-01 08:52:00,55.0,25.0,-100.00,East,86,6.0,11.0,31,-99.99,,,-99.99,,2013-02-01 16:52:00,
2013-02-01 09:02:00,55.0,25.0,-100.00,East,86,6.0,11.0,31,-99.99,,,-99.99,,2013-02-01 17:02:00,
2013-02-01 09:11:00,55.0,24.0,-100.00,East,90,7.0,11.0,30,-99.99,,,-99.99,,2013-02-01 17:11:00,
2013-02-01 09:21:00,55.0,23.0,-100.00,East,85,8.0,12.0,29,-99.99,,,-99.99,,2013-02-01 17:21:00,
2013-02-01 09:31:00,55.0,23.0,-100.00,East,97,8.0,13.0,29,-99.99,,,-99.99,,2013-02-01 17:31:00,
2013-02-01 09:41:00,55.0,24.0,-100.00,East,100,8.0,12.0,30,-99.99,,,-99.99,,2013-02-01 17:41:00,
2013-02-01 09:52:00,55.0,24.0,-100.00,East,93,8.0,12.0,30,-99.99,,,-99.99,,2013-02-01 17:52:00,
2013-02-01 10:02:00,55.0,25.0,-100.00,East,81,7.0,11.0,31,-99.99,,,-99.99,,2013-02-01 18:02:00,
2013-02-01 10:11:00,55.0,26.0,-100.00,East,86,8.0,12.0,32,-99.99,,,-99.99,,2013-02-01 18:11:00,
2013-02-01 10:22:00,55.0,26.0,-100.00,East,84,8.0,12.0,32,-99.99,,,-99.99,,2013-02-01 18:22:00,
2013-02-01 10:31:00,56.0,26.0,-100.00,East,87,7.0,13.0,31,-99.99,,,-99.99,,2013-02-01 18:31:00,
2013-02-01 10:42:00,56.0,26.0,-100.00,East,87,7.0,13.0,31,-99.99,,,-99.99,,2013-02-01 18:42:00,
2013-02-01 10:52:00,56.0,26.0,-100.00,East,80,7.0,12.0,31,-99.99,,,-99.99,,2013-02-01 18:52:00,
2013-02-01 11:02:00,57.0,27.0,-100.00,ENE,71,8.0,12.0,31,-99.99,,,-99.99,,2013-02-01 19:02:00,
2013-02-01 11:11:00,57.0,27.0,-100.00,ENE,68,8.0,13.0,31,-99.99,,,-99.99,,2013-02-01 19:11:00,
2013-02-01 11:21:00,57.0,26.0,-100.00,East,81,8.0,13.0,30,-99.99,,,-99.99,,2013-02-01 19:21:00,
2013-02-01 11:31:00,57.0,26.0,-100.00,East,86,8.0,13.0,30,-99.99,,,-99.99,,2013-02-01 19:31:00,
2013-02-01 11:41:00,57.0,27.0,-100.00,East,82,8.0,12.0,31,-99.99,,,-99.99,,2013-02-01 19:41:00,
2013-02-01 11:51:00,57.0,27.0,-100.00,East,82,8.0,14.0,31,-99.99,,,-99.99,,2013-02-01 19:51:00,
2013-02-01 12:01:00,58.0,27.0,-100.00,ENE,68,8.0,13.0,30,-99.99,,,-99.99,,2013-02-01 20:01:00,
2013-02-01 12:11:00,58.0,27.0,-100.00,ENE,68,7.0,11.0,30,-99.99,,,-99.99,,2013-02-01 20:11:00,
2013-02-01 12:21:00,58.0,25.0,-100.00,East,95,8.0,13.0,28,-99.99,,,-99.99,,2013-02-01 20:21:00,
2013-02-01 12:31:00,58.0,26.0,-100.00,East,93,7.0,11.0,29,-99.99,,,-99.99,,2013-02-01 20:31:00,
2013-02-01 12:41:00,59.0,28.0,-100.00,East,96,7.0,11.0,31,-99.99,,,-99.99,,2013-02-01 20:41:00,
2013-02-01 12:52:00,59.0,28.0,-100.00,East,80,8.0,13.0,30,-99.99,,,-99.99,,2013-02-01 20:52:00,
2013-02-01 13:01:00,58.0,27.0,-100.00,ENE,71,8.0,12.0,30,-99.99,,,-99.99,,2013-02-01 21:01:00,
2013-02-01 13:11:00,59.0,27.0,-100.00,East,81,7.0,11.0,29,-99.99,,,-99.99,,2013-02-01 21:11:00,
2013-02-01 13:21:00,59.0,27.0,-100.00,ENE,78,6.0,10.0,29,-99.99,,,-99.99,,2013-02-01 21:21:00,
2013-02-01 13:31:00,59.0,28.0,-100.00,ENE,78,7.0,11.0,30,-99.99,,,-99.99,,2013-02-01 21:31:00,
2013-02-01 13:41:00,59.0,28.0,-100.00,ENE,78,7.0,11.0,30,-99.99,,,-99.99,,2013-02-01 21:41:00,
2013-02-01 13:52:00,59.0,28.0,-100.00,East,79,7.0,11.0,30,-99.99,,,-99.99,,2013-02-01 21:52:00,
2013-02-01 14:01:00,59.0,27.0,-100.00,East,91,6.0,11.0,29,-99.99,,,-99.99,,2013-02-01 22:01:00,
2013-02-01 14:11:00,59.0,27.0,-100.00,ENE,76,7.0,11.0,29,-99.99,,,-99.99,,2013-02-01 22:11:00,
2013-02-01 14:21:00,59.0,27.0,-100.00,East,92,7.0,10.0,29,-99.99,,,-99.99,,2013-02-01 22:21:00,
2013-02-01 14:32:00,59.0,27.0,-100.00,East,92,6.0,10.0,29,-99.99,,,-99.99,,2013-02-01 22:32:00,
2013-02-01 14:42:00,59.0,28.0,-100.00,East,94,6.0,10.0,30,-99.99,,,-99.99,,2013-02-01 22:42:00,
2013-02-01 14:51:00,59.0,28.0,-100.00,East,90,6.0,11.0,30,-99.99,,,-99.99,,2013-02-01 22:51:00,
2013-02-01 15:01:00,59.0,28.0,-100.00,East,86,6.0,9.0,30,-99.99,,,-99.99,,2013-02-01 23:01:00,
2013-02-01 15:11:00,59.0,28.0,-100.00,East,101,6.0,10.0,30,-99.99,,,-99.99,,2013-02-01 23:11:00,
2013-02-01 15:21:00,60.0,28.0,-100.00,East,93,6.0,10.0,29,-99.99,,,-99.99,,2013-02-01 23:21:00,
2013-02-01 15:31:00,59.0,28.0,-100.00,East,85,6.0,9.0,30,-99.99,,,-99.99,,2013-02-01 23:31:00,
2013-02-01 15:41:00,59.0,28.0,-100.00,East,82,6.0,9.0,30,-99.99,,,-99.99,,2013-02-01 23:41:00,
2013-02-01 15:52:00,59.0,28.0,-100.00,East,91,6.0,11.0,30,-99.99,,,-99.99,,2013-02-01 23:52:00,
2013-02-01 16:01:00,58.0,27.0,-100.00,East,86,6.0,9.0,30,-99.99,,,-99.99,,2013-02-02 00:01:00,
2013-02-01 16:11:00,58.0,28.0,-100.00,East,92,6.0,8.0,31,-99.99,,,-99.99,,2013-02-02 00:11:00,
2013-02-01 16:21:00,58.0,28.0,-100.00,East,91,5.0,8.0,31,-99.99,,,-99.99,,2013-02-02 00:21:00,
2013-02-01 16:32:00,58.0,27.0,-100.00,East,89,6.0,9.0,30,-99.99,,,-99.99,,2013-02-02 00:32:00,
2013-02-01 16:41:00,58.0,27.0,-100.00,East,79,6.0,10.0,30,-99.99,,,-99.99,,2013-02-02 00:41:00,
2013-02-01 16:52:00,58.0,28.0,-100.00,East,83,5.0,8.0,31,-99.99,,,-99.99,,2013-02-02 00:52:00,
2013-02-01 17:01:00,57.0,27.0,-100.00,East,88,5.0,8.0,32,-99.99,,,-99.99,,2013-02-02 01:01:00,
2013-02-01 17:11:00,57.0,28.0,-100.00,East,94,4.0,8.0,33,-99.99,,,-99.99,,2013-02-02 01:11:00,
2013-02-01 17:21:00,56.0,29.0,-100.00,ESE,108,4.0,5.0,35,-99.99,,,-99.99,,2013-02-02 01:21:00,
2013-02-01 17:31:00,54.0,28.0,-100.00,ESE,116,3.0,5.0,37,-99.99,,,-99.99,,2013-02-02 01:31:00,
2013-02-01 17:41:00,54.0,29.0,-100.00,ESE,118,3.0,4.0,38,-99.99,,,-99.99,,2013-02-02 01:41:00,
2013-02-01 17:52:00,53.0,29.0,-100.00,ESE,111,3.0,4.0,40,-99.99,,,-99.99,,2013-02-02 01:52:00,
2013-02-01 18:01:00,52.0,29.0,-100.00,ESE,108,2.0,4.0,41,-99.99,,,-99.99,,2013-02-02 02:01:00,
2013-02-01 18:11:00,51.0,29.0,-100.00,ESE,102,2.0,3.0,43,-99.99,,,-99.99,,2013-02-02 02:11:00,
2013-02-01 18:21:00,50.0,29.0,-100.00,East,96,2.0,3.0,44,-99.99,,,-99.99,,2013-02-02 02:21:00,
2013-02-01 18:31:00,50.0,29.0,-100.00,ESE,112,3.0,4.0,44,-99.99,,,-99.99,,2013-02-02 02:31:00,
2013-02-01 18:41:00,50.0,29.0,-100.00,East,85,2.0,4.0,44,-99.99,,,-99.99,,2013-02-02 02:41:00,
2013-02-01 18:52:00,50.0,29.0,-100.00,East,90,2.0,4.0,44,-99.99,,,-99.99,,2013-02-02 02:52:00,
2013-02-01 19:02:00,50.0,28.0,-100.00,ESE,114,3.0,5.0,43,-99.99,,,-99.99,,2013-02-02 03:02:00,
2013-02-01 19:11:00,50.0,28.0,-100.00,ESE,118,4.0,5.0,42,-99.99,,,-99.99,,2013-02-02 03:11:00,
2013-02-01 19:21:00,51.0,28.0,-100.00,ESE,121,4.0,6.0,41,-99.99,,,-99.99,,2013-02-02 03:21:00,
2013-02-01 19:32:00,51.0,28.0,-100.00,ESE,116,4.0,6.0,41,-99.99,,,-99.99,,2013-02-02 03:32:00,
2013-02-01 19:42:00,51.0,29.0,-100.00,ESE,117,4.0,6.0,42,-99.99,,,-99.99,,2013-02-02 03:42:00,
2013-02-01 19:51:00,50.0,28.0,-100.00,ESE,116,4.0,6.0,43,-99.99,,,-99.99,,2013-02-02 03:51:00,
2013-02-01 20:01:00,50.0,28.0,-100.00,ESE,116,4.0,6.0,43,-99.99,,,-99.99,,2013-02-02 04:01:00,
2013-02-01 20:11:00,50.0,28.0,-100.00,ESE,116,5.0,6.0,43,-99.99,,,-99.99,,2013-02-02 04:11:00,
2013-02-01 20:21:00,50.0,28.0,-100.00,ESE,120,5.0,7.0,43,-99.99,,,-99.99,,2013-02-02 04:21:00,
2013-02-01 20:32:00,50.0,28.0,-100.00,ESE,111,4.0,6.0,43,-99.99,,,-99.99,,2013-02-02 04:32:00,
2013-02-01 20:41:00,50.0,28.0,-100.00,ESE,111,4.0,6.0,43,-99.99,,,-99.99,,2013-02-02 04:41:00,
2013-02-01 20:51:00,50.0,29.0,-100.00,ESE,111,5.0,6.0,44,-99.99,,,-99.99,,2013-02-02 04:51:00,
2013-02-01 21:02:00,50.0,29.0,-100.00,ESE,111,4.0,6.0,44,-99.99,,,-99.99,,2013-02-02 05:02:00,
2013-02-01 21:11:00,50.0,29.0,-100.00,ESE,112,4.0,7.0,44,-99.99,,,-99.99,,2013-02-02 05:11:00,
2013-02-01 21:22:00,49.0,29.0,-100.00,ESE,112,3.0,6.0,45,-99.99,,,-99.99,,2013-02-02 05:22:00,
2013-02-01 21:32:00,50.0,28.0,-100.00,ESE,118,4.0,5.0,43,-99.99,,,-99.99,,2013-02-02 05:32:00,
2013-02-01 21:41:00,50.0,28.0,-100.00,ESE,118,4.0,5.0,43,-99.99,,,-99.99,,2013-02-02 05:41:00,
2013-02-01 21:52:00,50.0,28.0,-100.00,ESE,114,4.0,6.0,43,-99.99,,,-99.99,,2013-02-02 05:52:00,
2013-02-01 22:02:00,50.0,29.0,-100.00,ESE,115,3.0,7.0,44,-99.99,,,-99.99,,2013-02-02 06:02:00,
2013-02-01 22:11:00,50.0,28.0,-100.00,ESE,122,3.0,6.0,43,-99.99,,,-99.99,,2013-02-02 06:11:00,
2013-02-01 22:21:00,50.0,28.0,-100.00,ESE,114,3.0,5.0,43,-99.99,,,-99.99,,2013-02-02 06:21:00,
2013-02-01 22:31:00,49.0,29.0,-100.00,East,96,3.0,4.0,45,-99.99,,,-99.99,,2013-02-02 06:31:00,
2013-02-01 22:41:00,49.0,29.0,-100.00,East,99,3.0,4.0,45,-99.99,,,-99.99,,2013-02-02 06:41:00,
2013-02-01 22:51:00,49.0,28.0,-100.00,East,99,3.0,5.0,44,-99.99,,,-99.99,,2013-02-02 06:51:00,
2013-02-01 23:01:00,50.0,28.0,-100.00,ESE,105,4.0,6.0,43,-99.99,,,-99.99,,2013-02-02 07:01:00,
2013-02-01 23:11:00,49.0,28.0,-100.00,ESE,113,3.0,5.0,44,-99.99,,,-99.99,,2013-02-02 07:11:00,
2013-02-01 23:21:00,49.0,28.0,-100.00,ESE,116,4.0,6.0,44,-99.99,,,-99.99,,2013-02-02 07:21:00,
2013-02-01 23:31:00,50.0,28.0,-100.00,ESE,116,5.0,6.0,43,-99.99,,,-99.99,,2013-02-02 07:31:00,
2013-02-01 23:41:00,50.0,28.0,-100.00,ESE,112,4.0,5.0,43,-99.99,,,-99.99,,2013-02-02 07:41:00,
2013-02-01 23:51:00,49.0,28.0,-100.00,ESE,108,3.0,5.0,44,-99.99,,,-99.99,,2013-02-02 07:51:00,